sat.trackr.live / text

‹ back to catalog

STARLINK-11596 [DTC]

NORAD 64321 · 2025-124E

PAYLOAD ACTIVE UNKNOWN

§ Identity

Operator
Country
US
Launch date
2025-06-10
Launch site
AFETR
Launch vehicle
Mass (kg)
RCS (m²)

Purposes: comms

External: N2YO · Heavens-Above · Gunter

§ Orbital elements

Epoch: 2026-05-24T20:57:24.618240Z

Period
91.66 min
Inclination
42.9984°
Eccentricity
0.0001379
Mean motion
15.70956062 rev/d
Perigee alt
355.2 km
Apogee alt
357.1 km
Semi-major
6,734.3 km
B*
1.4010e-3
RAAN
290.2235°
Arg perigee
271.3044°
Mean anomaly
88.7666°
Rev number
5,481

§ Raw data

STARLINK-11596 [DTC]1 64321U 25124E   26144.87320160  .00184262  00000+0  14010-2 0  99942 64321  42.9984 290.2235 0001379 271.3044  88.7666 15.70956062 54818

JSON: /api/v1/satellites/64321 · /tle

For live sub-satellite position, see the globe view (requires WebGL).

§ Visibility from observer

Set your observer location to see the next 7 days of passes ≥ 10°. The values pass through the URL so the page stays shareable.

No JS? Fill the form by hand. The geolocation button needs JavaScript.